CW5456 Weather Reports


Display with metric or nautical units.
time (UTC)temp
F
wind
direction
speed
MPH
gust
MPH
rain 1hr
in
rain 24hr
in
rain mn
in
humidity
%
barometer
mb
20170525083027 48 133 0.0 0.0 0.00 0.00 0.00 90 1011.8
20170525082023 48 133 0.0 0.0 0.00 0.00 0.00 90 1011.8
20170525081023 48 133 0.0 0.0 0.00 0.00 0.00 90 1011.8
20170525080023 48 133 0.0 1.0 0.00 0.00 0.00 90 1011.8
20170525074953 49 133 1.0 1.0 0.00 0.00 0.00 89 1011.8
20170525073956 49 133 0.0 0.0 0.00 0.00 0.00 89 1011.8
20170525073022 49 133 0.0 2.0 0.00 0.00 0.00 89 1011.9
20170525072021 49 133 0.0 4.0 0.00 0.00 0.00 89 1011.9
20170525071021 49 133 2.0 4.0 0.00 0.00 0.00 89 1012.1
20170525070021 49 133 0.0 8.0 0.00 0.00 0.00 88 1012.1
20170525065020 50 136 5.0 6.0 0.00 0.00 0.00 88 1012.0
20170525064023 50 142 5.0 6.0 0.00 0.00 0.00 88 1012.1
20170525063020 50 144 2.0 7.0 0.00 0.00 0.00 88 1012.2
20170525062020 50 144 6.0 7.0 0.00 0.00 0.00 87 1012.2
20170525061020 50 143 6.0 7.0 0.00 0.00 0.00 87 1012.3
20170525060022 50 140 5.0 7.0 0.00 0.00 0.00 87 1012.4
20170525055022 50 144 5.0 6.0 0.00 0.00 0.00 86 1012.6
20170525054018 50 147 4.0 7.0 0.00 0.00 0.00 85 1012.5
20170525053018 50 147 6.0 7.0 0.00 0.00 0.00 84 1012.7
20170525052018 51 163 4.0 4.0 0.00 0.00 0.00 84 1012.6
20170525051018 51 223 2.0 4.0 0.00 0.00 0.00 83 1012.7
20170525050017 51 306 2.0 3.0 0.00 0.00 0.00 83 1012.7
20170525045020 51 303 1.0 2.0 0.00 0.00 0.00 83 1012.8
20170525044016 51 303 0.0 1.0 0.00 0.00 0.00 83 1012.7
20170525043016 52 303 1.0 2.0 0.00 0.00 0.00 82 1012.7
20170525042016 52 303 1.0 3.0 0.00 0.00 0.00 81 1012.7
20170525041016 53 303 0.0 2.0 0.00 0.00 0.00 80 1012.7
20170525040015 54 303 1.0 2.0 0.00 0.00 0.00 79 1012.7
20170525035015 54 303 0.0 3.0 0.00 0.00 0.00 78 1012.7
20170525034015 54 304 0.0 2.0 0.00 0.00 0.00 78 1012.7
20170525033015 54 303 0.0 3.0 0.00 0.00 0.00 78 1012.7
20170525032014 55 304 0.0 0.0 0.00 0.00 0.00 79 1012.8
20170525031018 55 304 0.0 1.0 0.00 0.00 0.00 78 1012.8
20170525030013 55 304 0.0 1.0 0.00 0.00 0.00 79 1012.9
20170525025013 55 303 0.0 0.0 0.00 0.00 0.00 79 1012.8
20170525024013 55 304 0.0 2.0 0.00 0.00 0.00 79 1012.8
20170525023015 55 303 0.0 1.0 0.00 0.00 0.00 79 1012.8
20170525022013 55 304 0.0 3.0 0.00 0.00 0.00 79 1012.8
20170525021012 55 304 0.0 3.0 0.00 0.00 0.00 79 1012.9
20170525020015 55 316 0.0 3.0 0.00 0.00 0.00 80 1012.9
20170525015011 55 327 0.0 3.0 0.00 0.00 0.00 80 1012.8
20170525014011 55 332 1.0 3.0 0.00 0.00 0.00 80 1012.9
20170525013014 55 332 3.0 6.0 0.00 0.00 0.00 79 1013.0
20170525012010 56 294 1.0 2.0 0.00 0.00 0.00 80 1013.2
20170525011013 55 296 0.0 2.0 0.00 0.00 0.00 82 1013.3
20170525010010 55 296 2.0 4.0 0.00 0.00 0.00 81 1013.2
20170525005009 55 332 2.0 5.0 0.00 0.00 0.00 81 1013.4
20170525004012 55 260 3.0 6.0 0.00 0.00 0.00 79 1013.4
20170525003009 55 249 0.0 5.0 0.00 0.00 0.00 82 1013.5
20170525002008 54 279 3.0 7.0 0.00 0.00 0.00 81 1013.6
20170525001011 54 283 5.0 7.0 0.00 0.00 0.00 82 1013.7
20170525000008 54 274 7.0 9.0 0.00 0.00 0.00 82 1013.8
20170524235008 54 308 2.0 8.0 0.00 0.00 0.00 82 1013.8
20170524234008 54 278 4.0 7.0 0.00 0.00 0.00 82 1013.8
20170524233007 55 293 6.0 8.0 0.00 0.00 0.00 80 1013.9
20170524232007 54 303 4.0 8.0 0.00 0.00 0.00 82 1014.1
20170524231009 54 256 6.0 10.0 0.00 0.00 0.00 83 1014.1
20170524230009 53 283 10.0 11.0 0.00 0.00 0.00 83 1014.1
20170524225006 53 283 6.0 10.0 0.00 0.00 0.00 85 1014.0
20170524224005 53 256 9.0 11.0 0.00 0.00 0.00 84 1014.3
20170524223005 53 301 11.0 11.0 0.00 0.00 0.00 83 1014.3
20170524222008 53 262 10.0 11.0 0.00 0.00 0.00 83 1014.3
20170524221005 53 278 8.0 11.0 0.00 0.00 0.00 82 1014.4
20170524220004 54 327 4.0 12.0 0.00 0.00 0.00 79 1014.5
20170524215004 55 341 11.0 11.0 0.00 0.00 0.00 80 1014.5
20170524214004 55 6 4.0 5.0 0.00 0.00 0.00 78 1014.6
20170524213004 56 33 3.0 5.0 0.00 0.00 0.00 75 1014.5
20170524212003 55 31 5.0 6.0 0.00 0.00 0.00 75 1014.5
20170524211003 56 20 5.0 8.0 0.00 0.00 0.00 74 1014.4
20170524210003 56 21 7.0 7.0 0.00 0.00 0.00 75 1014.5
20170524205002 56 31 1.0 7.0 0.00 0.00 0.00 78 1014.5
20170524204002 56 27 5.0 6.0 0.00 0.00 0.00 78 1014.5
20170524203005 56 22 5.0 6.0 0.00 0.00 0.00 79 1014.5
20170524202012 55 23 3.0 5.0 0.00 0.00 0.00 77 1014.7
20170524201001 56 20 5.0 6.0 0.00 0.00 0.00 77 1014.8
20170524200001 56 23 5.0 5.0 0.00 0.00 0.00 75 1014.7
20170524195000 56 21 3.0 6.0 0.00 0.00 0.00 73 1015.0
20170524194000 56 6 4.0 7.0 0.00 0.00 0.00 75 1015.1
20170524193000 56 19 6.0 9.0 0.00 0.00 0.00 74 1015.3
20170524192000 56 22 6.0 10.0 0.00 0.00 0.00 75 1015.3
20170524190959 56 24 7.0 10.0 0.00 0.00 0.00 73 1015.3
20170524190002 56 21 6.0 10.0 0.00 0.00 0.00 75 1015.3
20170524185001 57 25 7.0 10.0 0.00 0.00 0.00 74 1015.4
20170524183958 57 22 9.0 10.0 0.00 0.00 0.00 71 1015.4
20170524182958 58 359 6.0 9.0 0.00 0.00 0.00 65 1015.4
20170524181957 59 196 4.0 9.0 0.00 0.00 0.00 65 1015.5
20170524180958 59 193 4.0 11.0 0.00 0.00 0.00 66 1015.5
20170524175957 58 133 1.0 9.0 0.00 0.00 0.00 64 1015.6
20170524174957 58 112 1.0 11.0 0.00 0.00 0.00 68 1015.8
20170524173957 58 110 4.0 12.0 0.00 0.00 0.00 66 1015.9
20170524172959 57 163 5.0 10.0 0.00 0.00 0.00 67 1015.9
20170524172026 56 102 4.0 9.0 0.00 0.00 0.00 69 1015.9
20170524170959 56 117 4.0 11.0 0.00 0.00 0.00 69 1016.1
20170524170025 55 105 2.0 11.0 0.00 0.00 0.00 70 1016.1
20170524164955 55 129 5.0 13.0 0.00 0.00 0.00 72 1016.0
20170524163955 54 118 3.0 11.0 0.00 0.00 0.00 73 1016.2
20170524162957 54 116 2.0 13.0 0.00 0.00 0.00 72 1016.0
20170524162024 54 148 4.0 11.0 0.00 0.00 0.00 72 1016.1
20170524161024 54 120 5.0 9.0 0.00 0.00 0.00 71 1016.2
20170524160023 54 102 4.0 8.0 0.00 0.00 0.00 72 1016.3
20170524155023 54 104 1.0 6.0 0.00 0.00 0.00 74 1016.4
20170524154023 53 135 4.0 11.0 0.00 0.00 0.00 74 1016.5
20170524153022 53 135 5.0 8.0 0.00 0.00 0.00 75 1016.5
20170524152025 53 93 2.0 7.0 0.00 0.00 0.00 75 1016.4
20170524151022 52 122 0.0 8.0 0.00 0.00 0.00 75 1016.7
20170524150025 52 118 3.0 7.0 0.00 0.00 0.00 73 1016.7
20170524145021 52 112 0.0 5.0 0.00 0.00 0.00 74 1016.8
20170524144021 52 113 3.0 6.0 0.00 0.00 0.00 75 1016.9
20170524143023 52 102 0.0 6.0 0.00 0.00 0.00 75 1016.7
20170524142024 52 90 0.0 4.0 0.00 0.00 0.00 78 1016.5
20170524141020 51 85 0.0 2.0 0.00 0.00 0.00 80 1016.5
20170524140020 51 85 0.0 1.0 0.00 0.00 0.00 82 1016.6
20170524135020 49 131 0.0 2.0 0.00 0.00 0.00 84 1016.4
20170524134019 48 131 0.0 6.0 0.00 0.00 0.00 85 1016.5
20170524133019 47 127 3.0 5.0 0.00 0.00 0.00 86 1016.4
20170524132021 47 127 0.0 1.0 0.00 0.00 0.00 86 1016.5
20170524131021 46 127 0.0 3.0 0.00 0.00 0.00 86 1016.5
20170524130018 46 127 2.0 6.0 0.00 0.00 0.00 85 1016.4
20170524125018 47 164 0.0 1.0 0.00 0.00 0.00 85 1016.5
20170524124021 47 164 0.0 1.0 0.00 0.00 0.00 84 1016.6
20170524123017 47 164 1.0 4.0 0.00 0.00 0.00 83 1016.6
20170524122017 47 136 0.0 6.0 0.00 0.00 0.00 83 1016.6
20170524121016 47 127 3.0 8.0 0.00 0.00 0.00 82 1016.4
20170524120016 47 145 0.0 7.0 0.00 0.00 0.00 82 1016.2
20170524115016 47 131 0.0 6.0 0.00 0.00 0.00 80 1016.2
20170524114015 47 141 0.0 6.0 0.00 0.00 0.00 79 1016.1
20170524113018 47 139 4.0 6.0 0.00 0.00 0.00 79 1016.1
20170524112015 47 186 4.0 5.0 0.00 0.00 0.00 77 1016.1
20170524111014 47 167 0.0 2.0 0.00 0.00 0.00 76 1016.2
20170524110014 48 167 0.0 2.0 0.00 0.00 0.00 75 1016.3
20170524105017 48 167 0.0 4.0 0.00 0.00 0.00 74 1016.3
20170524104017 48 168 3.0 7.0 0.00 0.00 0.00 73 1016.3
20170524103013 48 117 1.0 5.0 0.00 0.00 0.00 72 1016.2
20170524102013 48 212 0.0 3.0 0.00 0.00 0.00 72 1016.2
20170524101012 48 212 0.0 4.0 0.00 0.00 0.00 73 1016.0
20170524100016 48 203 1.0 2.0 0.00 0.00 0.00 73 1016.0
20170524095012 48 202 0.0 8.0 0.00 0.00 0.00 73 1016.1
20170524094012 48 201 4.0 7.0 0.00 0.00 0.00 74 1016.2
20170524093011 49 8 2.0 6.0 0.00 0.00 0.00 74 1016.2
20170524092011 49 289 5.0 10.0 0.00 0.00 0.00 75 1016.4
20170524091011 49 199 2.0 10.0 0.00 0.00 0.00 75 1016.3
20170524090010 49 337 1.0 9.0 0.00 0.00 0.00 75 1016.2
20170524085010 50 162 4.0 13.0 0.00 0.00 0.00 75 1016.3
20170524084010 50 260 2.0 14.0 0.00 0.00 0.00 75 1016.3